Location: Dilsberg
(49.3983°N, 8.8354°E)
Time: 07:05:02
(UTC+00:00)

ISS - Pass Details

Date: 19 May 2025
Orbit: 415 x 417 km, 51.6° (Epoch: 22 June)

Event Time Altitude Azimuth Distance (km) Brightness Sun altitude
Rises 20:09:15 0° 284° (WNW) 2,363 1.2 -8.6°
Reaches altitude 10° 20:11:22 10° 287° (WNW) 1,497 0.1 -8.9°
Maximum altitude 20:14:42 65° 11° (N) 464 -3.4 -9.3°
Drops below altitude 10° 20:18:02 10° 93° (E) 1,491 -1.4 -9.6°
Enters shadow 20:18:28 - 94° (E) 1,665 -1.2 -9.7°
